User: anonymous   Login
Location: Eaton
(41.3139°N, 82.0207°W)
Time: 23:31:37
(UTC+00:00)
Language:

Cosmos 2221 - Orbit

View from above orbital plane
View from above orbital plane
View from above satellite
View from above satellite

Ground track
Ground track

The orbit data is extracted from the following two-line orbital elements,

1 22236U 92080A   21268.56215896  .00000443  00000-0  45349-4 0  9995
2 22236  82.5109  24.1133 0015804 213.2530 146.7696 14.88104274559489
Epoch (UTC): 25 September 2021 13:29:30
Eccentricity: 0.0015804
inclination: 82.5109°
perigee height: 593 km
apogee height: 615 km
right ascension of ascending node: 24.1133°
argument of perigee: 213.2530°
revolutions per day: 14.88104274
mean anomaly at epoch: 146.7696°
orbit number at epoch: 55948

The dashed part of the orbit path shows where the satellite is in the earth's shadow,  

DLR